Vorticity
16 14 13 8 4 7 10 5 7 10 9 9 2 1 4 2 0 4 17 19 2 -7 10 19 12 15 25 31 29 23 18 16 19 25 28 15 11 14 11 11 7 5 5 4 5 6 5 2 1 1 3 7
15 18 13 9 10 2 11 11 9 18 10 9 7 2 5 4 0 2 6 -5 -4 16 18 14 9 8 28 30 4 -1 11 13 12 16 25 17 11 12 12 13 10 9 10 9 6 5 7 2 2 5 3 3
14 20 13 13 12 1 34 26 1 24 14 3 3 -2 7 6 -4 -10 -5 -5 -4 3 -2 2 2 -3 20 24 -5 -10 2 7 8 6 12 13 10 12 12 14 12 11 17 23 16 4 4 7 5 5 6 4
10 18 15 15 12 7 37 9 -21 16 14 1 -3 -7 3 2 -2 -2 5 10 8 4 -5 -6 -11 -17 -5 8 6 3 3 7 10 7 7 6 5 10 10 10 11 5 7 23 31 21 9 7 7 5 6 6
7 14 17 15 11 2 15 6 -6 10 7 6 1 -2 7 2 4 10 12 9 6 7 6 2 -6 -9 -6 -0 5 2 2 6 8 9 11 10 10 16 11 4 4 1 1 7 21 34 29 12 3 5 6 6
6 8 13 16 15 -5 -9 6 9 2 1 5 0 4 12 10 5 1 5 8 4 3 8 13 6 3 5 5 6 4 5 5 5 7 10 10 12 18 19 15 8 3 7 4 2 16 31 27 12 5 5 6
10 8 7 11 19 7 -6 0 6 8 11 9 3 -1 -0 7 12 8 5 4 4 4 8 14 13 11 9 9 10 9 9 7 6 5 6 8 8 11 14 19 18 14 12 6 1 3 11 19 19 15 13 10
12 12 11 7 8 12 12 8 1 2 5 10 15 7 -3 -4 2 10 9 9 5 -1 -2 1 9 13 9 10 10 10 11 10 9 7 5 5 7 7 6 10 16 19 18 11 5 4 4 5 9 11 13 17
10 10 13 11 6 2 7 14 10 6 0 0 11 15 10 0 3 10 6 10 6 -3 -5 -5 5 14 11 8 5 8 10 8 8 8 6 3 5 7 6 6 9 15 20 22 15 6 4 3 6 5 3 9
11 8 8 9 9 5 3 8 8 11 10 2 2 10 14 3 6 15 12 18 15 11 15 10 11 13 10 7 4 6 8 8 7 5 5 3 4 6 5 0 2 10 13 21 29 23 14 6 4 7 5 3
8 9 9 6 5 8 11 13 5 3 10 11 4 3 10 3 -0 7 6 12 16 15 18 14 13 12 11 11 8 6 5 8 10 8 4 2 3 6 9 5 -0 5 8 8 16 25 29 24 14 8 8 10
5 5 9 9 7 5 6 12 12 8 5 10 12 6 8 4 3 10 5 2 7 14 16 12 12 13 16 18 17 14 11 10 11 13 9 3 4 5 8 10 4 3 9 8 5 7 14 23 26 20 13 10
7 6 5 6 8 7 5 6 10 11 1 -0 9 6 3 1 -0 8 12 2 -7 0 9 10 13 12 14 20 19 14 13 13 10 11 11 6 4 5 7 9 9 5 5 9 9 7 4 7 16 22 22 16
7 8 8 6 5 6 7 7 7 12 7 0 3 1 1 3 1 2 12 10 -8 -10 -4 -2 7 14 14 14 14 11 10 10 7 5 5 8 7 5 7 7 10 8 4 5 7 7 7 7 8 12 20 24
5 6 8 8 8 6 6 7 7 10 11 8 6 5 5 7 7 2 4 9 0 -3 1 -3 -3 4 8 6 8 12 13 14 14 12 10 12 12 10 10 9 9 9 7 5 3 3 3 4 6 7 10 16
4 5 6 6 8 8 7 7 7 7 9 11 8 6 8 8 10 8 6 8 7 6 7 9 2 -7 -2 6 11 12 11 14 16 20 20 16 13 10 10 8 7 8 7 6 2 -1 -2 -2 1 4 5 7
4 4 4 4 5 6 7 8 8 7 6 9 10 8 8 5 4 7 10 8 9 10 -0 5 10 -1 4 10 9 10 9 8 6 10 15 16 17 13 12 12 9 7 5 5 4 -0 -3 -5 -4 -1 3 5
4 4 4 4 5 4 5 6 8 9 6 6 6 7 9 8 3 0 4 2 3 11 1 -2 1 -2 8 7 2 11 11 7 5 3 4 10 15 13 13 15 14 13 10 7 5 4 3 0 0 0 2 4
4 4 3 4 5 5 5 4 5 7 8 8 6 6 6 8 9 2 1 0 -0 9 7 2 -1 -8 0 4 6 14 8 5 8 7 7 9 12 13 11 11 13 15 15 14 10 9 8 7 6 4 5 6
5 5 4 3 3 4 5 4 4 5 5 8 7 7 6 5 10 8 7 4 1 4 2 2 4 -3 -4 -4 -3 4 4 5 8 13 16 11 10 13 12 9 8 10 12 16 16 14 13 12 11 9 10 10
4 5 5 4 3 3 4 4 4 4 4 6 7 8 8 7 7 8 10 10 8 6 2 3 7 3 -2 -5 -7 -4 4 8 10 18 19 10 7 10 12 11 9 8 9 10 12 15 15 16 18 15 13 11
3 3 4 4 4 3 4 5 5 5 3 3 5 6 7 8 7 6 6 8 9 8 5 4 5 3 1 4 4 0 7 12 10 12 13 11 10 9 8 9 10 8 7 7 8 9 10 11 14 17 17 14
4 4 4 4 4 4 3 3 4 6 5 4 4 4 5 6 7 8 6 6 7 7 8 5 -0 -3 -3 3 3 -4 -1 4 2 1 2 4 10 15 11 7 8 5 4 8 8 7 7 4 3 5 11 15
4 5 5 5 6 6 4 3 4 5 5 5 5 4 3 4 5 7 8 7 7 5 7 11 7 0 -3 0 1 -7 -14 -7 7 8 -3 -3 5 11 9 4 2 1 4 8 8 10 11 10 7 2 1 5
5 5 6 6 7 7 7 5 4 4 5 5 7 6 5 4 4 4 5 6 8 6 4 7 9 7 5 6 7 0 -16 -17 4 10 -1 3 8 3 3 1 -3 2 12 13 9 9 9 8 8 6 1 0
10 7 6 6 6 6 9 9 7 5 5 6 6 7 6 6 5 4 4 3 4 6 6 4 5 7 9 10 11 11 2 -12 -11 -5 -4 1 2 -3 1 3 -3 1 11 12 9 4 4 8 11 10 6 3
14 13 11 10 9 8 8 9 9 8 7 6 5 5 5 6 7 6 7 6 4 5 6 6 6 6 6 6 7 10 16 9 -6 -10 -10 -5 -1 -5 -3 1 -1 -1 2 11 15 5 6 18 19 15 8 5
10 12 13 13 12 12 10 9 9 9 9 8 6 5 5 6 6 6 7 8 5 4 4 5 5 5 5 7 7 5 10 17 11 2 -6 -9 -9 -9 -5 -5 -4 -0 -3 6 19 7 -2 4 8 12 10 7
6 7 8 9 11 12 13 12 11 10 10 9 7 5 5 5 5 5 5 4 3 4 5 7 8 7 3 3 7 7 6 9 14 13 8 -0 -6 -3 1 -8 -13 -4 -5 -3 11 10 0 -4 -2 7 12 11
9 9 8 7 8 8 10 12 13 13 12 11 10 8 6 5 5 5 5 3 3 5 7 7 8 11 12 6 2 6 7 6 7 9 10 10 9 10 12 4 -9 -11 -8 -6 -5 -0 10 11 5 7 11 14
9 10 11 11 10 9 8 9 11 12 12 13 14 14 12 10 7 5 6 9 7 6 4 1 -1 6 18 18 7 0 3 7 8 7 6 7 8 8 10 15 10 -5 -10 -5 -7 -9 0 7 3 4 9 11
Height
5735 5735 5736 5736 5736 5738 5738 5738 5737 5737 5738 5738 5739 5740 5739 5741 5742 5743 5743 5742 5741 5741 5743 5744 5744 5745 5745 5744 5744 5745 5746 5746 5747 5749 5751 5752 5752 5754 5756 5759 5761 5763 5764 5765 5767 5769 5770 5771 5772 5774 5776 5778
5731 5731 5732 5732 5733 5735 5735 5732 5731 5732 5734 5735 5734 5735 5736 5737 5738 5738 5738 5737 5737 5738 5739 5739 5739 5740 5741 5742 5742 5742 5743 5744 5744 5745 5746 5748 5749 5750 5752 5754 5756 5758 5759 5760 5762 5763 5765 5766 5767 5769 5770 5773
5728 5728 5728 5730 5731 5733 5731 5728 5727 5728 5731 5732 5731 5732 5733 5733 5733 5733 5733 5733 5733 5734 5735 5735 5736 5736 5737 5738 5739 5739 5739 5740 5741 5742 5743 5744 5745 5746 5748 5749 5752 5753 5754 5755 5756 5758 5759 5761 5762 5763 5765 5767
5725 5724 5725 5727 5729 5729 5728 5726 5724 5725 5728 5730 5730 5730 5730 5729 5729 5730 5730 5729 5729 5731 5731 5731 5731 5732 5733 5734 5735 5735 5735 5736 5736 5737 5739 5739 5740 5741 5743 5745 5747 5748 5749 5750 5751 5752 5753 5755 5757 5758 5759 5761
5721 5721 5721 5722 5724 5724 5725 5724 5722 5722 5723 5725 5727 5726 5724 5725 5726 5726 5726 5725 5726 5727 5727 5727 5727 5728 5729 5730 5731 5731 5731 5732 5732 5733 5734 5735 5735 5737 5738 5740 5742 5743 5745 5746 5746 5747 5748 5750 5752 5753 5755 5756
5718 5718 5718 5718 5720 5720 5720 5720 5719 5719 5719 5720 5722 5721 5721 5721 5721 5721 5721 5722 5722 5723 5723 5724 5723 5724 5725 5725 5726 5727 5727 5728 5728 5729 5730 5730 5731 5732 5733 5734 5736 5737 5739 5741 5742 5743 5743 5746 5747 5748 5750 5752
5715 5715 5715 5715 5716 5716 5716 5715 5715 5716 5716 5716 5716 5716 5717 5717 5717 5718 5718 5718 5719 5719 5719 5719 5720 5720 5720 5720 5721 5722 5723 5724 5724 5725 5725 5726 5726 5727 5727 5729 5731 5732 5733 5735 5737 5738 5739 5741 5742 5743 5745 5747
5712 5712 5711 5711 5712 5712 5711 5711 5712 5712 5712 5712 5712 5713 5713 5714 5714 5714 5714 5714 5714 5714 5715 5715 5715 5716 5716 5716 5716 5716 5718 5719 5719 5720 5720 5721 5721 5722 5723 5725 5726 5726 5727 5729 5731 5732 5734 5736 5737 5739 5740 5741
5708 5708 5708 5707 5707 5707 5706 5707 5708 5708 5708 5708 5708 5709 5710 5711 5710 5709 5709 5709 5710 5710 5710 5710 5711 5711 5711 5712 5711 5712 5713 5714 5715 5715 5716 5716 5717 5718 5719 5720 5721 5722 5722 5724 5726 5727 5728 5730 5732 5733 5735 5736
5704 5704 5704 5704 5703 5703 5703 5703 5704 5704 5704 5704 5705 5705 5706 5707 5705 5703 5704 5704 5705 5706 5706 5706 5706 5706 5706 5707 5707 5707 5708 5709 5711 5712 5712 5712 5713 5714 5715 5716 5717 5718 5718 5720 5721 5721 5722 5724 5726 5727 5729 5731
5700 5700 5699 5699 5698 5699 5699 5699 5699 5700 5701 5702 5702 5702 5701 5700 5699 5698 5700 5700 5701 5701 5701 5701 5701 5700 5701 5701 5702 5702 5703 5704 5705 5707 5708 5708 5708 5709 5711 5712 5713 5714 5714 5715 5716 5717 5717 5718 5720 5721 5723 5725
5697 5696 5695 5695 5694 5694 5695 5694 5694 5696 5697 5697 5697 5696 5695 5695 5695 5695 5696 5696 5697 5697 5696 5696 5696 5696 5696 5697 5697 5697 5698 5698 5699 5701 5702 5703 5704 5704 5705 5707 5708 5709 5710 5711 5711 5712 5712 5713 5714 5715 5717 5719
5693 5692 5691 5691 5690 5690 5690 5690 5689 5690 5692 5692 5691 5691 5691 5691 5691 5690 5691 5692 5692 5692 5691 5691 5691 5691 5692 5692 5692 5692 5693 5693 5694 5695 5696 5697 5698 5699 5700 5701 5703 5704 5705 5706 5706 5707 5707 5707 5708 5709 5711 5713
5689 5688 5688 5687 5686 5686 5686 5685 5685 5685 5686 5686 5686 5686 5686 5686 5686 5686 5686 5687 5687 5687 5687 5687 5687 5687 5687 5687 5687 5687 5688 5688 5689 5690 5691 5691 5692 5693 5694 5695 5697 5699 5700 5701 5701 5702 5702 5703 5703 5704 5705 5706
5684 5684 5683 5682 5681 5681 5681 5681 5681 5681 5681 5681 5681 5681 5681 5681 5681 5681 5681 5682 5682 5682 5682 5682 5683 5683 5683 5683 5682 5682 5682 5683 5684 5685 5686 5686 5687 5688 5688 5689 5691 5692 5694 5695 5696 5697 5698 5698 5699 5699 5700 5701
5679 5679 5679 5678 5677 5676 5676 5677 5676 5676 5676 5676 5676 5676 5676 5677 5677 5677 5677 5677 5677 5677 5678 5679 5679 5679 5680 5679 5678 5677 5677 5677 5678 5679 5680 5681 5681 5682 5683 5684 5685 5687 5688 5689 5690 5691 5692 5693 5694 5694 5695 5696
5673 5674 5674 5673 5672 5671 5671 5671 5671 5671 5671 5671 5671 5670 5672 5673 5673 5672 5672 5671 5672 5673 5674 5674 5674 5675 5675 5675 5674 5673 5673 5673 5673 5674 5675 5675 5676 5676 5677 5678 5679 5681 5682 5683 5685 5686 5687 5688 5689 5689 5690 5691
5668 5667 5667 5667 5667 5665 5665 5666 5665 5665 5665 5665 5665 5665 5665 5666 5666 5666 5665 5665 5666 5668 5669 5669 5669 5670 5670 5669 5669 5669 5668 5668 5668 5668 5669 5670 5671 5671 5671 5672 5673 5674 5675 5677 5678 5680 5681 5682 5683 5684 5685 5686
5663 5662 5661 5661 5661 5660 5659 5660 5660 5659 5659 5659 5659 5659 5659 5659 5659 5660 5660 5660 5661 5662 5663 5663 5663 5663 5663 5663 5663 5663 5663 5664 5664 5664 5664 5665 5666 5667 5667 5667 5667 5668 5669 5670 5671 5673 5675 5676 5677 5678 5679 5680
5658 5657 5655 5655 5654 5654 5653 5653 5653 5653 5653 5653 5653 5653 5652 5652 5652 5654 5654 5653 5654 5655 5656 5657 5657 5657 5657 5657 5658 5658 5658 5659 5659 5659 5659 5660 5661 5662 5662 5662 5662 5662 5663 5664 5665 5666 5668 5670 5671 5672 5673 5674
5651 5651 5650 5649 5648 5647 5647 5646 5646 5646 5647 5647 5647 5647 5646 5646 5646 5647 5647 5647 5647 5647 5648 5650 5650 5651 5651 5651 5652 5652 5653 5653 5654 5654 5655 5655 5656 5656 5657 5657 5657 5657 5658 5658 5659 5660 5662 5663 5664 5666 5667 5668
5644 5644 5643 5643 5642 5641 5640 5640 5639 5639 5640 5640 5640 5640 5639 5639 5640 5640 5640 5640 5640 5640 5641 5643 5643 5644 5645 5645 5647 5647 5647 5648 5648 5649 5650 5650 5651 5651 5651 5652 5652 5652 5653 5654 5655 5656 5657 5658 5659 5660 5661 5663
5636 5636 5636 5636 5635 5634 5634 5633 5632 5632 5632 5632 5633 5633 5633 5632 5632 5633 5633 5633 5633 5634 5634 5635 5636 5636 5636 5637 5640 5641 5642 5642 5643 5644 5644 5644 5645 5645 5645 5646 5646 5647 5648 5649 5650 5652 5653 5653 5654 5655 5656 5657
5627 5627 5627 5627 5627 5627 5626 5626 5625 5624 5624 5624 5625 5625 5626 5625 5625 5625 5626 5626 5627 5627 5627 5628 5628 5628 5628 5629 5632 5634 5635 5636 5637 5638 5638 5638 5638 5638 5639 5640 5641 5642 5642 5643 5644 5646 5647 5648 5649 5650 5651 5653
5618 5618 5618 5618 5619 5619 5618 5618 5618 5617 5616 5616 5617 5617 5617 5618 5618 5618 5618 5618 5619 5619 5620 5620 5620 5620 5621 5623 5626 5627 5628 5629 5630 5630 5631 5631 5632 5632 5633 5634 5635 5635 5635 5636 5637 5639 5640 5640 5642 5644 5646 5648
5609 5609 5609 5608 5609 5610 5610 5610 5609 5609 5609 5609 5608 5608 5608 5609 5610 5610 5610 5610 5611 5611 5612 5612 5612 5613 5614 5616 5618 5619 5621 5621 5622 5622 5623 5623 5625 5626 5627 5628 5629 5629 5630 5630 5631 5632 5632 5633 5635 5637 5640 5642
5600 5599 5599 5599 5599 5600 5601 5601 5601 5600 5601 5600 5600 5599 5599 5601 5601 5601 5602 5602 5602 5602 5603 5603 5604 5605 5606 5607 5609 5611 5613 5614 5614 5615 5615 5616 5617 5618 5619 5621 5622 5623 5624 5625 5625 5625 5626 5626 5627 5629 5633 5636
5590 5590 5589 5589 5590 5590 5591 5591 5592 5591 5591 5591 5591 5590 5591 5592 5592 5593 5593 5593 5593 5593 5593 5594 5596 5596 5597 5599 5600 5601 5603 5605 5607 5607 5608 5609 5610 5611 5612 5614 5616 5616 5617 5619 5620 5619 5620 5620 5620 5623 5626 5627
5581 5580 5580 5579 5580 5580 5580 5581 5582 5582 5582 5581 5581 5581 5581 5582 5583 5584 5584 5584 5584 5584 5585 5585 5586 5587 5588 5589 5590 5592 5594 5596 5597 5598 5599 5600 5601 5603 5605 5607 5608 5608 5609 5611 5612 5613 5613 5614 5615 5618 5618 5617
5570 5570 5569 5569 5569 5569 5570 5570 5571 5572 5571 5571 5571 5571 5571 5572 5573 5573 5574 5575 5574 5575 5576 5576 5577 5577 5578 5579 5580 5581 5583 5585 5587 5588 5589 5590 5591 5594 5596 5598 5599 5601 5602 5602 5604 5605 5606 5607 5609 5611 5610 5609
5559 5559 5559 5559 5558 5558 5559 5559 5560 5561 5561 5561 5561 5561 5561 5561 5562 5563 5564 5564 5564 5565 5566 5567 5568 5569 5569 5568 5569 5571 5573 5575 5576 5577 5578 5580 5582 5584 5586 5588 5591 5594 5594 5593 5595 5597 5598 5599 5601 5603 5603 5603